Location: Bordères
(43.2583°N, 0.0495°E)
Time: 21:42:06
(UTC+00:00)

Daily predictions for brighter satellites

Satellite Brightness Start Highest point End
(mag) Time Altitude Azimuth Time Altitude Azimuth Time Altitude Azimuth
Terra 3.2 20:10:28 10° ESE 20:14:09 23° ENE 20:17:52 10° NNE
SL-08 ROCKET BODY 4.4 20:08:11 10° S 20:14:14 71° E 20:20:13 10° NNE
Okean-O 2.8 20:10:08 10° SSE 20:14:27 58° ENE 20:18:48 10° N
SL-14 R/B 3.4 20:12:09 10° S 20:15:50 52° E 20:19:33 10° NNE
Cosmos 2237 Rocket 4.4 20:14:56 10° NNE 20:16:52 12° NE 20:18:48 10° ENE
COSMOS 2455 4.1 20:12:38 10° SSE 20:16:56 21° ESE 20:21:15 10° ENE
CZ-4C R/B 3.3 20:14:35 10° SE 20:17:11 16° ESE 20:20:03 10° ENE
BREEZE-M DEB (TANK) 3.3 20:15:48 10° NW 20:17:42 28° NNE 20:19:52 10° E
Cosmos 2333 Rocket 2.3 20:11:57 10° NNW 20:17:45 80° ENE 20:23:31 10° SSE
Meteor 1-4 Rocket 3.5 20:15:50 10° SE 20:18:12 22° E 20:20:36 10° NE
Cosmos 2266 Rocket 4.1 20:14:27 10° S 20:20:49 87° E 20:27:17 10° N
CZ-4C R/B 3.8 20:17:10 10° NNE 20:21:08 44° E 20:24:58 10° S
Okean O Rocket 2.1 20:18:13 10° S 20:22:32 61° W 20:26:51 10° NNW
SPOT 5 3.0 20:18:44 10° SSE 20:22:56 50° ENE 20:27:18 10° N
Cosmos 1862 Rocket 4.0 20:18:56 10° SSE 20:23:06 43° E 20:27:19 10° NNE
S3M 4.1 20:18:07 10° N 20:24:29 88° E 20:30:43 10° S
Cosmos 1833 4.2 20:19:56 10° SSW 20:25:34 88° ESE 20:31:13 10° NNE
Cosmos 2228 Rocket 3.2 20:22:55 10° S 20:27:26 67° E 20:31:59 10° NNE
ERS-1 Rocket 3.7 20:23:02 10° SE 20:27:38 38° ENE 20:32:16 10° N
SL-27 R/B 3.9 20:25:49 10° SW 20:28:22 32° WNW 20:30:56 10° N
Okean 3 4.0 20:25:32 10° SSE 20:29:23 39° E 20:33:18 10° NNE
Cosmos 1814 Rocket 4.2 20:24:21 10° NNW 20:29:39 65° ENE 20:34:56 10° SSE
Cosmos 1242 Rocket 4.1 20:30:49 10° ESE 20:31:35 11° E 20:32:21 10° ENE
Cosmos 1300 2.5 20:28:29 10° N 20:32:03 75° E 20:35:35 10° SSE
Meteor 1-12 Rocket 4.5 20:28:29 10° N 20:34:33 88° W 20:40:30 10° S
Cosmos 2322 Rocket 2.9 20:29:50 10° NNW 20:35:22 54° WSW 20:40:53 10° S
Cosmos 2333 4.3 20:32:47 10° NNW 20:38:37 90° E 20:44:23 10° SSE
DNEPR-1 R/B 4.3 20:32:47 10° NW 20:39:19 85° ENE 20:44:15 12° SE
Cosmos 2297 Rocket 3.8 20:37:49 10° SE 20:40:44 15° E 20:43:48 10° ENE
Aureole 3 4.0 20:37:40 10° S 20:42:00 57° E 20:47:27 10° NNE
Cosmos 1707 Rocket 3.6 20:37:52 10° S 20:42:17 86° E 20:46:44 10° N
Cosmos 1356 Rocket 3.7 20:38:13 10° SSW 20:42:24 74° W 20:46:37 10° N
OPS 8737 4.2 20:40:13 10° NW 20:43:09 78° SW 20:46:00 13° SSE
Cosmos 1758 3.6 20:42:26 10° NNW 20:46:22 69° W 20:50:17 10° S
Cosmos 2219 Rocket 2.2 20:44:49 10° NNW 20:50:32 82° ENE 20:55:42 13° SSE
BREEZE-M DEB (TANK) 3.9 20:48:17 10° W 20:51:50 65° NNW 21:04:03 10° ENE
ATLAS 2AS CENTAUR R/B 3.2 20:49:08 10° NW 20:55:41 54° WSW 21:01:59 10° SSE
Delta 2 Rocket 4.4 20:55:22 10° SSW 20:57:26 16° SSE 20:57:39 16° SSE
Cosmos 1733 Rocket 3.3 20:54:19 10° NNW 20:58:44 72° W 21:03:09 10° S
Spot 2 Rocket 3.7 20:56:42 14° SSE 21:00:57 57° ENE 21:05:57 10° N
Cosmos 1455 2.8 20:57:44 10° N 21:00:59 34° ENE 21:03:00 19° SE
Cosmos 1655 Rocket 4.4 20:55:58 10° SSW 21:02:19 68° W 21:08:42 10° N
SPOT 3 Rocket 3.9 20:58:51 15° SE 21:02:57 51° ENE 21:07:58 10° N
Resurs 01 Rocket 4.2 21:04:15 10° SW 21:06:57 16° W 21:09:41 10° NW
SeaSat 1 3.0 21:08:35 16° SE 21:12:12 47° ENE 21:16:55 10° NNW
Meteor 2-20 Rocket 4.4 21:06:29 10° N 21:12:37 74° E 21:17:26 16° SSE
NOSS 8 (H) 4.4 21:14:59 10° SSW 21:19:12 82° SE 21:22:25 10° NE
Cosmos 2360 Rocket 3.7 21:15:13 10° NW 21:20:03 30° WSW 21:24:53 10° SSW
Cosmos 158 Rocket 4.4 21:15:03 10° NNW 21:20:10 52° ENE 21:23:25 21° SE
Cosmos 1953 2.1 21:16:40 10° N 21:20:29 71° E 21:22:43 23° SSE
Cosmos 1908 Rocket 3.6 21:16:27 10° N 21:20:45 61° E 21:23:21 22° SSE
COSMOS 2428 2.8 21:15:24 10° NNW 21:21:07 69° ENE 21:25:01 21° SE
Cosmos 2208 Rocket 4.3 21:16:42 10° NNW 21:21:48 56° ENE 21:25:04 21° SE
Cosmos 1782 Rocket 4.4 21:20:40 10° N 21:24:38 34° ENE 21:26:41 22° SE
CENTAUR R/B 3.5 21:23:46 19° ESE 21:25:04 20° ESE 21:29:28 10° ENE
Ariane Rocket 3.0 21:22:31 18° SSE 21:26:19 90° ENE 21:31:26 10° NNW
Cosmos 2084 Rocket 3.5 21:25:58 10° SSW 21:30:12 54° ESE 21:34:18 10° NE
Cosmos 1486 Rocket 4.0 21:31:44 16° S 21:35:46 60° ESE 21:40:54 10° NNE
Cosmos 1315 Rocket 3.8 21:33:26 10° SSW 21:37:16 46° WNW 21:41:09 10° N
MetOp-A 4.2 21:40:03 25° SE 21:43:01 61° ENE 21:48:06 10° N
ARIANE 5 R/B 4.3 21:41:49 17° E 21:43:41 21° ENE 21:46:59 10° NNE
SJ 16-02 4.0 21:41:19 10° WSW 21:44:29 20° WNW 21:47:40 10° NNW
GP-B 3.5 21:41:13 10° NNE 21:45:27 45° E 21:47:06 31° SE
BlueWalker 3 4.5 21:43:55 10° WNW 21:46:57 23° NNW 21:49:59 10° NE
Cosmos 371 Rocket 3.2 21:43:55 21° S 21:47:06 66° ESE 21:51:53 10° NNE
NOSS 0 Rocket 4.0 21:41:10 10° NNW 21:47:26 76° ENE 21:51:08 26° SE
SL-4 R/B 2.0 21:46:09 10° WNW 21:50:01 65° SW 21:51:26 37° SSE
MOS 1 Rocket 4.1 21:46:19 17° S 21:50:16 53° W 21:55:19 10° NNW
Terra 2.8 21:48:01 15° SSW 21:51:30 40° W 21:55:56 10° NNW
USA 234 3.2 21:45:27 10° NE 21:51:59 70° SE 21:58:29 10° SW
Okean 1-7 4.4 21:51:29 10° SW 21:55:28 37° WNW 21:59:29 10° N
Cosmos 1354 Rocket 4.5 21:55:11 30° SSE 21:57:12 43° ESE 22:02:12 10° NNE
Spot 1 4.4 21:52:25 10° NNE 21:57:13 87° WNW 22:00:41 20° SSW
Cosmos 1386 Rocket 4.5 21:54:35 19° S 21:59:19 89° WNW 22:05:29 10° N
SL-16 R/B 4.1 21:55:55 10° N 22:00:09 21° NE 22:04:11 11° E
Cosmos 1703 Rocket 4.3 21:57:18 15° SSW 22:00:51 51° WNW 22:05:12 10° N
Cosmos 2237 Rocket 2.5 21:56:36 10° NNW 22:02:12 59° ENE 22:05:00 29° SE
COSMOS 2455 3.2 21:56:16 10° SW 22:02:15 68° WNW 22:08:18 10° NNE
Landsat 5 3.6 21:58:29 10° N 22:02:39 76° WNW 22:05:09 24° SSW
Cosmos 1745 Rocket 4.0 21:58:43 22° S 22:03:05 84° E 22:09:29 10° N
Cosmos 1242 Rocket 4.2 22:01:35 13° WSW 22:03:14 22° WNW 22:05:26 10° NNW
USA 281 4.2 22:00:04 17° ESE 22:04:27 37° NE 22:10:22 10° N
CZ-4C R/B 2.3 22:00:16 10° SW 22:04:37 60° NW 22:10:05 10° NNE
Cosmos 2227 Rocket 2.7 22:03:19 31° SE 22:05:07 39° ESE 22:10:20 10° NE
Meteor 2-5 Rocket 4.2 22:05:17 30° SSE 22:07:43 48° E 22:13:15 10° NNE
Nadezhda 1 Rocket 4.0 22:03:21 10° N 22:09:36 84° W 22:13:03 28° S
Cosmos 773 Rocket 3.9 22:10:48 10° NNW 22:16:00 84° ENE 22:18:03 38° SSE
Cosmos 304 Rocket 3.8 22:13:19 23° SSW 22:16:17 78° WNW 22:21:04 10° NNE
Cosmos 1980 3.7 22:11:03 10° NNW 22:16:46 81° ENE 22:19:14 35° SSE
Cosmos 2297 Rocket 2.3 22:19:32 17° SSW 22:24:01 78° WNW 22:29:42 10° NNE
ALOS 2 4.3 22:25:43 18° E 22:27:06 21° ENE 22:30:23 10° NNE
Cosmos 1703 3.1 22:33:06 62° SSW 22:33:37 78° W 22:37:18 10° N
Cosmos 2219 Rocket 4.5 22:30:48 10° WNW 22:33:40 14° W 22:36:32 10° SW
Cosmos 1408 3.5 22:33:30 29° W 22:33:56 31° WNW 22:36:39 10° NNW
NOSS 3-2 (A) 3.5 22:33:40 38° SE 22:34:15 40° ESE 22:39:38 10° NE
CZ-2C R/B 3.5 22:31:27 10° NNE 22:35:54 84° E 22:37:07 49° S
Cosmos 2098 Rocket 3.9 22:30:12 10° N 22:36:39 69° E 22:38:52 39° SSE
Cosmos 2219 3.7 22:37:54 36° SE 22:38:50 39° ESE 22:44:01 10° NE
Cosmos 2181 Rocket 4.2 22:33:25 10° N 22:39:27 55° ENE 22:41:46 36° SE
Cosmos 1777 Rocket 4.2 22:39:06 26° SSW 22:42:06 70° WNW 22:47:23 10° NNE
Cosmos 332 Rocket 3.7 22:41:57 45° S 22:43:27 82° ESE 22:48:22 10° NNE
Cosmos 1825 3.1 22:44:58 32° ENE 22:44:58 32° ENE 22:47:28 10° NNE
Cosmos 2263 Rocket 3.0 22:44:08 30° ESE 22:44:38 31° ESE 22:49:27 10° NE
Meteor 1-24 Rocket 3.7 22:42:45 36° SSW 22:45:13 85° W 22:50:47 10° N
Cosmos 2221 Rocket 3.9 22:46:44 45° ESE 22:47:08 46° E 22:51:22 10° NNE
SeaSat 1 3.9 22:48:17 21° SW 22:49:48 25° WSW 22:53:49 10° NW
Sich 1 Rocket 3.7 22:51:09 10° N 22:55:30 60° E 22:56:03 54° ESE
Okean 1 Rocket 3.8 22:52:48 10° N 22:56:56 39° ENE 22:57:31 37° E
PSLV R/B 3.8 22:54:16 10° N 22:58:15 77° WNW 22:58:44 65° SW
Cosmos 1174 4.3 22:55:15 10° NW 22:59:32 44° WSW 22:59:35 44° WSW
Cosmos 1892 2.7 23:03:07 64° NE 23:03:07 64° NE 23:06:14 10° NNE
Spot 4 3.9 23:03:31 53° SE 23:04:32 72° ENE 23:09:21 10° N
Cosmos 1025 Rocket 3.8 23:12:05 38° E 23:12:05 38° E 23:16:05 10° NNE
Cosmos 967 Rocket 4.4 23:11:00 36° SSW 23:13:54 83° ESE 23:20:25 10° NE
CENTAUR R/B 2.6 23:10:49 21° SW 23:14:40 69° NW 23:21:37 10° NNE
Nadezhda 3 Rocket 4.5 23:09:30 10° N 23:15:33 49° ENE 23:17:41 35° SE
Cosmos 405 Rocket 3.6 23:14:35 10° NNW 23:18:05 38° W 23:18:05 38° W
ARIANE 5 R/B 3.4 23:19:17 36° WSW 23:19:49 37° W 23:23:53 10° NNW
Cosmos 1328 3.8 23:25:24 70° ENE 23:25:24 70° ENE 23:29:02 10° NNE
Cosmos 1898 Rocket 3.7 23:25:20 49° SE 23:25:51 51° ESE 23:30:52 10° NNE
Cosmos 1378 Rocket 4.1 23:25:05 43° WSW 23:25:54 49° WNW 23:30:12 10° N
Cosmos 1455 Rocket 4.1 23:22:02 10° N 23:26:07 34° ENE 23:26:44 33° E
Aureole 1 Rocket 2.9 23:26:55 69° E 23:26:55 69° E 23:31:37 10° NNE
Cosmos 2184 Rocket 4.0 23:26:26 45° S 23:28:35 87° E 23:35:01 10° N
Cosmos 1674 Rocket 3.9 23:29:17 48° WSW 23:29:54 53° W 23:34:09 10° N
H-2A R/B 2.9 23:32:26 50° WSW 23:32:36 50° W 23:36:42 10° NNW
USA 234 4.3 23:28:38 10° NE 23:34:46 44° NNW 23:40:53 10° W
SL-16 R/B 2.2 23:39:09 10° NNW 23:44:50 72° WSW 23:46:02 54° S
Cosmos 2237 Rocket 3.8 23:41:40 10° NW 23:45:45 21° W 23:46:48 20° WSW
Spot 2 4.5 23:46:01 57° SSW 23:46:48 66° WSW 23:51:45 10° NNW
Cosmos 2154 Rocket 4.0 23:45:18 46° SSW 23:47:18 83° W 23:53:39 10° N
USA 281 3.6 23:46:56 38° SSW 23:48:46 47° WSW 23:55:07 10° NW
Cosmos 2227 Rocket 3.6 23:45:04 15° WSW 23:49:11 34° NW 23:54:18 10° N
Cosmos 1867 4.3 23:50:23 37° ESE 23:50:30 37° ESE 23:55:31 10° NE
Cosmos 1943 4.1 23:45:54 10° NNW 23:51:15 43° ENE 23:53:53 26° ESE
Cosmos 2082 3.6 23:50:40 49° SW 23:52:16 81° WNW 23:57:55 10° NNE
Elektron 3 4.3 23:47:13 10° NW 23:52:51 88° NE 23:52:53 87° E
USA 238 DEB 4.0 23:52:03 38° SE 23:52:52 40° ESE 23:58:54 10° NE
USA 238 4.0 23:52:05 37° SE 23:52:55 39° ESE 23:58:56 10° NE
Cosmos 292 Rocket 4.0 23:52:49 52° WSW 23:53:45 64° WNW 23:58:34 10° NNE
PSLV R/B 3.3 23:50:38 10° NNE 23:54:49 86° WNW 23:54:55 84° WSW
Okean 2 Rocket 4.3 23:51:51 10° NNW 23:55:47 30° W 23:56:12 30° W
